Paynesville, MN

1:12 PM CDT on September 28, 2016 (GMT -0500)
Paynesville

Weather History for KPEX - July, 2013

Change the Weather History Date:

Friday, July 5, 2013

  Actual Average (KLJF) Record (KLJF)
Temperature  
Mean Temperature 78 °F -  
Max Temperature 88 °F 84 °F 98 °F (1988)
Min Temperature 69 °F 60 °F 45 °F (1972)
Cooling Degree Days 14    
Growing Degree Days 28 (Base 50)    
Moisture  
Dew Point 58 °F    
Average Humidity 51    
Maximum Humidity 60    
Minimum Humidity 38    
Precipitation  
Precipitation 0.00 in - - ()
Sea Level Pressure  
Sea Level Pressure 29.82 in    
Wind  
Wind Speed 10 mph (South)    
Max Wind Speed 15 mph    
Max Gust Speed 22 mph    
Visibility 9 miles    
Events      
Averages and records for this station are not official NWS values.
T = Trace of Precipitation, MM = Missing Value Source: NWS Daily Summary

Daily Weather History Graph

Daily Weather History Graph

Search for Another Location

Airport or City:

Trip Planner

Search our weather history database for the weather conditions in past years. The results will help you decide how hot, cold, wet, or windy it might be!

Date:

Astronomy

Jul. 05, 2013 Rise Set
Actual Time 5:37 AM CDT 9:09 PM CDT
Civil Twilight 5:00 AM CDT 9:46 PM CDT
Nautical Twilight 4:10 AM CDT 10:35 PM CDT
Astronomical Twilight 3:05 AM CDT 11:40 PM CDT
Moon 3:40 AM CDT (7/5) 7:02 PM CDT (7/5)
Length of Visible Light 16h 46m
Length of Day
15h 32m
Waning Crescent, 6% of the Moon is Illuminated
Jul 5
Waning Crescent
Jul 8
New
Jul 15
First Quarter
Jul 22
Full
Jul 29
Last Quarter

Hourly Weather History & Observations

Time (CDT) Temp. Heat Index Dew Point Humidity Pressure Visibility Wind Dir Wind Speed Gust Speed Precip Events Conditions
12:13 AM 75.0 °F - 53.8 °F 47% 29.86 in 10.0 mi South 8.1 mph - N/A   Clear
12:33 AM 73.9 °F - 54.5 °F 51% 29.86 in 10.0 mi South 10.4 mph - N/A   Clear
12:53 AM 74.3 °F - 53.6 °F 48% 29.86 in 10.0 mi South 9.2 mph - N/A   Clear
1:13 AM 74.3 °F - 53.4 °F 48% 29.85 in 10.0 mi South 12.7 mph 17.3 mph N/A   Clear
1:33 AM 74.3 °F - 53.4 °F 48% 29.85 in 10.0 mi South 8.1 mph - N/A   Clear
1:53 AM 73.4 °F - 53.6 °F 50% 29.85 in 10.0 mi South 10.4 mph - N/A   Clear
2:13 AM 72.9 °F - 53.6 °F 51% 29.86 in 10.0 mi SSE 9.2 mph 16.1 mph N/A   Clear
2:33 AM 72.7 °F - 53.8 °F 51% 29.86 in 10.0 mi South 12.7 mph 17.3 mph N/A   Clear
2:53 AM 72.5 °F - 54.0 °F 52% 29.86 in 10.0 mi South 11.5 mph 16.1 mph N/A   Clear
3:13 AM 72.3 °F - 53.8 °F 52% 29.86 in 10.0 mi South 11.5 mph - N/A   Clear
3:33 AM 72.0 °F - 53.6 °F 52% 29.86 in 10.0 mi South 11.5 mph 16.1 mph N/A   Clear
3:53 AM 71.6 °F - 53.6 °F 53% 29.86 in 10.0 mi South 11.5 mph - N/A   Clear
4:13 AM 71.6 °F - 53.4 °F 53% 29.86 in 10.0 mi South 9.2 mph 18.4 mph N/A   Clear
4:33 AM 70.9 °F - 53.6 °F 54% 29.85 in 10.0 mi SSE 9.2 mph 16.1 mph N/A   Clear
4:53 AM 70.0 °F - 54.1 °F 57% 29.85 in 10.0 mi SSE 9.2 mph - N/A   Clear
5:13 AM 69.8 °F - 54.1 °F 57% 29.85 in 10.0 mi SSE 8.1 mph - N/A   Clear
5:33 AM 69.8 °F - 54.3 °F 58% 29.85 in 10.0 mi SSE 10.4 mph - N/A   Clear
5:53 AM 69.8 °F - 54.5 °F 58% 29.84 in 10.0 mi SSE 11.5 mph 16.1 mph N/A   Clear
6:13 AM 69.6 °F - 54.5 °F 59% 29.83 in 10.0 mi SSE 9.2 mph 16.1 mph N/A   Clear
6:33 AM 69.8 °F - 54.7 °F 59% 29.83 in 10.0 mi SSE 11.5 mph 17.3 mph N/A   Clear
6:53 AM 69.8 °F - 54.9 °F 59% 29.83 in 10.0 mi SSE 11.5 mph 18.4 mph N/A   Clear
7:13 AM 70.0 °F - 55.4 °F 60% 29.84 in 10.0 mi South 9.2 mph 17.3 mph N/A   Clear
7:33 AM 70.9 °F - 55.6 °F 58% 29.84 in 10.0 mi South 11.5 mph 17.3 mph N/A   Scattered Clouds
7:53 AM 71.4 °F - 56.3 °F 59% 29.84 in 10.0 mi South 9.2 mph - N/A   Scattered Clouds
8:13 AM 72.1 °F - 56.5 °F 58% 29.84 in 10.0 mi SSE 12.7 mph 19.6 mph N/A   Clear
8:33 AM 72.5 °F - 56.8 °F 58% 29.84 in 10.0 mi South 12.7 mph 18.4 mph N/A   Clear
8:53 AM 73.2 °F - 57.4 °F 57% 29.84 in 10.0 mi South 10.4 mph 19.6 mph N/A   Clear
9:13 AM 73.6 °F - 57.0 °F 56% 29.84 in 10.0 mi South 11.5 mph 18.4 mph N/A   Clear
9:33 AM 74.1 °F - 57.9 °F 57% 29.83 in 10.0 mi SSE 11.5 mph 16.1 mph N/A   Clear
9:53 AM 75.7 °F - 59.2 °F 56% 29.83 in 10.0 mi South 10.4 mph - N/A   Clear
10:13 AM 76.8 °F - 58.6 °F 53% 29.83 in 10.0 mi South 9.2 mph - N/A   Clear
10:33 AM 77.7 °F - 59.5 °F 53% 29.83 in 10.0 mi South 13.8 mph 18.4 mph N/A   Clear
10:53 AM 78.6 °F - 59.5 °F 52% 29.82 in 10.0 mi South 13.8 mph 17.3 mph N/A   Clear
11:12 AM 79.7 °F - 59.0 °F 49% 29.82 in 10.0 mi SSE 10.4 mph 17.3 mph N/A   Clear
11:33 AM 79.0 °F - 59.7 °F 52% 29.82 in 10.0 mi SSE 12.7 mph 17.3 mph N/A   Clear
11:53 AM 81.0 °F 81.5 °F 59.7 °F 48% 29.82 in 10.0 mi South 11.5 mph 19.6 mph N/A   Clear
12:13 PM 81.5 °F 81.8 °F 59.5 °F 47% 29.82 in 10.0 mi South 8.1 mph - N/A   Clear
12:33 PM 82.2 °F 82.4 °F 59.7 °F 46% 29.82 in 10.0 mi South 10.4 mph 16.1 mph N/A   Clear
12:53 PM 82.9 °F 83.2 °F 60.3 °F 46% 29.82 in 10.0 mi South 11.5 mph 18.4 mph N/A   Clear
1:13 PM 83.5 °F 83.7 °F 60.6 °F 46% 29.82 in 10.0 mi South 11.5 mph 18.4 mph N/A   Clear
1:33 PM 83.3 °F 83.5 °F 60.8 °F 46% 29.82 in 10.0 mi South 9.2 mph 17.3 mph N/A   Clear
1:52 PM 83.3 °F 83.5 °F 60.4 °F 46% 29.81 in 10.0 mi South 11.5 mph - N/A   Clear
2:13 PM 84.7 °F 84.6 °F 60.3 °F 43% 29.82 in 5.0 mi South 13.8 mph - N/A   Haze
2:33 PM 84.6 °F 84.8 °F 60.8 °F 45% 29.81 in 7.0 mi South 8.1 mph 18.4 mph N/A   Clear
2:52 PM 84.6 °F 84.8 °F 61.2 °F 45% 29.81 in 7.0 mi South 10.4 mph 18.4 mph N/A   Scattered Clouds
3:13 PM 85.3 °F 85.4 °F 60.8 °F 44% 29.80 in 10.0 mi South 15.0 mph 21.9 mph N/A   Scattered Clouds
3:33 PM 85.5 °F 85.4 °F 60.6 °F 43% 29.80 in 10.0 mi South 15.0 mph 20.7 mph N/A   Clear
3:53 PM 86.0 °F 86.3 °F 61.5 °F 44% 29.79 in 10.0 mi South 10.4 mph 19.6 mph N/A   Clear
4:13 PM 85.8 °F 85.9 °F 60.6 °F 43% 29.79 in 10.0 mi South 13.8 mph 21.9 mph N/A   Scattered Clouds
4:33 PM 86.0 °F 86.3 °F 62.1 °F 44% 29.79 in 5.0 mi South 10.4 mph 17.3 mph N/A   Haze
4:53 PM 86.0 °F 86.6 °F 62.2 °F 45% 29.79 in 10.0 mi South 8.1 mph - N/A   Overcast
5:13 PM 88.0 °F 87.9 °F 61.0 °F 40% 29.79 in 7.0 mi SSW 12.7 mph 20.7 mph N/A   Mostly Cloudy
5:33 PM 88.0 °F 87.4 °F 59.7 °F 38% 29.78 in 7.0 mi SW 15.0 mph 20.7 mph N/A   Scattered Clouds
5:53 PM 87.4 °F 87.4 °F 60.8 °F 41% 29.78 in 7.0 mi SW 11.5 mph - N/A   Clear
6:13 PM 87.3 °F 87.0 °F 60.3 °F 40% 29.78 in 10.0 mi SW 12.7 mph - N/A   Clear
6:33 PM 86.9 °F 86.7 °F 60.6 °F 41% 29.78 in 7.0 mi SW 10.4 mph - N/A   Clear
6:53 PM 86.7 °F 86.8 °F 60.8 °F 42% 29.78 in 10.0 mi SW 10.4 mph - N/A   Scattered Clouds
7:12 PM 86.0 °F 86.3 °F 61.9 °F 44% 29.79 in 7.0 mi SW 8.1 mph - N/A   Clear
7:33 PM 85.1 °F 85.7 °F 62.4 °F 46% 29.79 in 10.0 mi SW 5.8 mph - N/A   Scattered Clouds
7:53 PM 83.8 °F 84.9 °F 63.3 °F 50% 29.79 in 7.0 mi SW 3.5 mph - N/A   Clear
8:13 PM 82.4 °F 83.7 °F 63.5 °F 53% 29.79 in 10.0 mi Calm Calm - N/A   Clear
8:33 PM 81.5 °F 82.8 °F 63.3 °F 54% 29.79 in 10.0 mi South 3.5 mph - N/A   Scattered Clouds
8:53 PM 81.0 °F 82.3 °F 63.3 °F 55% 29.79 in 7.0 mi South 3.5 mph - N/A   Mostly Cloudy
9:13 PM 80.2 °F 81.8 °F 63.5 °F 57% 29.79 in 7.0 mi South 3.5 mph - N/A   Mostly Cloudy
9:32 PM 79.9 °F - 62.6 °F 55% 29.79 in 7.0 mi South 4.6 mph - N/A   Mostly Cloudy
9:53 PM 79.0 °F - 61.7 °F 55% 29.80 in 7.0 mi South 5.8 mph - N/A   Mostly Cloudy
10:13 PM 78.1 °F - 61.3 °F 56% 29.81 in 10.0 mi South 4.6 mph - N/A   Scattered Clouds
10:33 PM 77.9 °F - 61.0 °F 56% 29.81 in 10.0 mi South 5.8 mph - N/A   Clear
10:53 PM 77.4 °F - 60.8 °F 57% 29.82 in 10.0 mi South 8.1 mph - N/A   Clear
11:13 PM 77.4 °F - 60.8 °F 57% 29.82 in 10.0 mi South 8.1 mph - N/A   Clear
11:33 PM 77.0 °F - 61.0 °F 58% 29.83 in 10.0 mi South 8.1 mph - N/A   Clear
11:52 PM 77.0 °F - 60.8 °F 57% 29.83 in 10.0 mi South 8.1 mph - N/A   Scattered Clouds